AirNav   Everest Fuels
 
 632 users online  

31AZ Benson Airport
Benson, Arizona, USA

GOING TO BENSON?


FAA INFORMATION EFFECTIVE 21 MAY 2020

Location

FAA Identifier: 31AZ
Lat/Long: 31-57-49.3000N 110-15-35.2610W
31-57.821667N 110-15.587683W
31.9636944,-110.2597947
(estimated)
Elevation: 3628 ft. / 1105.8 m (surveyed)
Variation: 12E (1985)
From city: 2 miles E of BENSON, AZ
Time zone: UTC -7 (year round; does not observe DST)
Zip code: 85602

Airport Operations

Airport use: Private use. Permission required prior to landing
Activation date: 02/1947
Control tower: no
ARTCC: ALBUQUERQUE CENTER
FSS: PRESCOTT FLIGHT SERVICE STATION
Attendance: UNATNDD
Wind indicator: yes
Segmented circle: no

Airport Communications

WX AWOS-3 at E95 (5 nm NW): 118.475 (520-586-4409)

Nearby radio navigation aids

VOR radial/distance  VOR name  Freq  Var
FHUr359/23.0LIBBY VOR/DME113.6013E
TUSr091/34.2TUCSON VORTAC116.0012E

Airport Services

Fuel available: 100 80
Airframe service: NONE
Powerplant service: NONE
Bottled oxygen: NONE
Bulk oxygen: NONE

Runway Information

Runway 8/26

Dimensions: 4800 x 140 ft. / 1463 x 43 m
Surface: dirt, in fair condition
RUNWAY 8  RUNWAY 26
Traffic pattern: leftleft
Runway end identifier lights: nono
Obstructions: pline, 300 ft. from runway, 6:1 slope to clear
5' BRUSH AT THR; 4' BANK; AND 5' FENCE 110' FROM W END.
none

Airport Ownership and Management from official FAA records

Ownership: Privately-owned
Owner: BEN A TAYLOR
BOX 54
BENSON, AZ 85602
Phone 602-586-3421
Manager: BEN A TAYLOR
BOX 54
BENSON, AZ 85602
Phone 602-586-3421

Airport Operational Statistics

Aircraft based on the field: 8
Single engine airplanes: 8
    
Aircraft operations: avg 58/month *
71% military
14% transient general aviation
14% local general aviation
* for 12-month period ending 05 October 1990

Additional Remarks

USE AT PILOTS OWN RISK--PRIOR CONTACT RECOMMENDED.
GOPHER HOLES, SLICK & MUDDY WHEN WET
FOR CD CTC ALBUQUERQUE ARTCC AT 505-856-4861.

Instrument Procedures

There are no published instrument procedures at 31AZ.

Some nearby airports with instrument procedures:

KFHU - Sierra Vista Municipal Airport-Libby Army Airfield (23 nm S)
P33 - Cochise County Airport (25 nm NE)
KDMA - Davis Monthan Air Force Base (34 nm W)
KTUS - Tucson International Airport (36 nm W)
KOLS - Nogales International Airport (44 nm SW)
 
Loc | Ops | Rwys | IFR | FBO | Links
Com | Nav | Svcs | Stats | Notes
Area around 31AZ (Benson Airport)
 
Road maps at: MapQuest Bing Google
 
Aerial photo
No photo
 
Sectional chart

 
Airport distance calculator
Flying to Benson Airport? Find the distance to fly.

From to 31AZ

Sunrise and sunset
Times for 30-May-2020
 Local
(UTC-7)
 Zulu
(UTC)
Morning civil twilight04:4911:49
Sunrise05:1712:17
Sunset19:2002:20
Evening civil twilight19:4802:48

Current date and time
Zulu (UTC)  30-May-2020 11:56:18
Local (UTC-7)  30-May-2020 04:56:18
 
METAR
KFHU 
22nm S 
301058Z AUTO 17004KT 10SM CLR 22/06 A3012 RMK AO2 SLP121 T02210059
KALK 
23nm S 
301056Z AUTO 00000KT 10SM CLR 22/07 A3013 RMK AO2 SLP098 T02220072
KDMA 
33nm W 
301058Z AUTO 12009KT 10SM CLR 27/08 A2994 RMK AO2 SLP088 T02670077 FZRANO $
KTUS 
37nm W 
301053Z 18005KT 10SM CLR 25/07 A2996 RMK AO2 SLP091 T02500072
TAF
KFHU 
22nm S 
300201Z 3002/3108 27015G25KT 9999 BKN120 QNH3009INS BECMG 3003/3004 23012KT 9999 BKN120 QNH3011INS TEMPO 3007/3009 21010G20KT BECMG 3009/3010 VRB06KT 9999 SCT140 BKN250 QNH3011INS BECMG 3017/3018 25009KT 9999 VCTS BKN120CB BKN200 QNH3009INS BECMG 3020/3021 VRB15G25KT 9999 TS OVC120CB QNH3002INS TEMPO 3021/3023 28020G30KT BECMG 3101/3102 26015KT 9999 NSW OVC180 QNH3001INS BECMG 3104/3105 VRB06KT 9999 SCT250 QNH3004INS TX33/3021Z TN17/3012Z LAST NO AMDS AFT 3006 NEXT 0102
NOTAMs
Click for the latest NOTAMs
NOTAMs are issued by the DoD/FAA and will open in a separate window not controlled by AirNav.

 

 
 

Would you like to see your business listed on this page?

 If your business provides an interesting product or service to pilots, flight crews, aircraft, or users of the Benson Airport, you should consider listing it here.  To start the listing process, click on the button below
 
Add a business
 

Other Pages about Benson Airport

Update a link
 
Copyright © AirNav, LLC. All rights reserved. Privacy Policy  Contact